Dewpoint
73 75 73 74 74 74 74 74 74 74 74 74 75 74 73 74 74 74 75 76 76 77 76 77 77 77 77 78 78 77 74 73 73 74 73 74 73 72 71 70 70 73
73 74 74 74 74 75 74 74 74 74 74 73 74 74 74 74 74 74 75 75 76 76 77 78 78 77 77 77 77 76 76 75 74 75 74 73 73 72 70 71 70 71
73 73 73 72 73 73 74 73 73 74 74 74 74 73 74 74 75 74 75 75 75 75 76 78 77 77 77 77 77 76 76 76 74 72 73 73 74 73 72 70 69 70
73 73 72 72 71 72 71 72 73 72 73 72 73 73 73 73 74 74 74 76 75 75 77 77 77 76 77 77 77 76 76 76 75 74 73 73 73 72 72 71 72 69
73 73 72 72 71 72 71 70 71 71 70 71 72 72 72 73 73 74 75 75 74 75 77 76 76 76 76 76 77 75 76 76 76 75 75 73 73 73 72 71 70 71
72 72 73 72 71 71 70 70 70 70 69 71 70 73 70 75 72 72 75 74 74 75 75 75 75 76 76 76 77 76 75 75 75 75 75 74 74 72 71 72 70 69
71 72 72 72 71 71 70 69 70 70 68 69 70 70 70 74 72 72 73 73 72 73 73 74 75 75 76 76 77 76 76 75 74 75 74 75 75 74 71 71 72 71
71 71 71 71 70 69 71 69 69 70 69 68 69 69 69 70 71 71 72 72 71 72 72 72 74 74 74 75 76 77 76 76 75 75 75 75 75 74 75 75 75 71
72 72 72 71 69 68 68 68 69 68 70 68 68 68 69 68 70 70 72 72 72 72 72 73 73 73 73 74 75 76 76 74 74 74 75 74 75 74 74 74 74 74
72 72 71 70 69 68 66 65 66 67 68 69 68 66 68 69 70 69 71 72 72 72 72 71 73 73 73 73 74 75 75 74 74 74 75 74 74 74 74 74 73 73
72 72 72 71 69 68 66 65 64 64 67 66 67 66 66 67 71 69 71 72 71 71 73 71 73 73 72 72 73 74 74 74 73 74 74 74 74 74 76 74 74 73
74 73 71 71 71 71 68 65 64 63 64 66 65 65 65 65 68 69 70 71 71 70 72 73 72 73 72 72 72 73 74 74 73 73 74 74 74 74 74 74 73 73
73 74 74 72 72 71 70 70 70 67 62 65 65 64 64 63 65 68 70 71 71 70 70 72 72 71 73 74 72 71 72 73 73 73 73 73 74 73 73 73 73 73
74 74 73 72 73 73 72 71 70 70 68 67 66 65 64 63 62 65 67 70 70 69 70 71 72 72 71 73 74 73 72 71 71 72 72 72 72 72 72 71 72 72
74 74 73 73 73 72 72 70 70 70 70 69 68 67 67 64 62 63 65 67 70 70 69 70 71 72 72 72 72 72 72 72 71 71 71 71 71 71 71 70 70 70
73 73 72 72 72 72 71 71 70 71 71 71 71 70 69 68 68 66 64 65 67 69 69 69 70 72 73 70 72 72 72 71 72 71 71 70 70 70 69 69 69 68
73 73 72 72 72 72 72 73 72 72 71 71 72 71 70 70 70 68 67 64 65 66 68 68 68 70 70 66 67 69 72 72 71 71 71 70 69 69 69 67 67 67
72 73 72 72 73 72 72 73 73 72 71 71 72 72 71 69 68 68 69 69 65 64 66 67 68 69 65 64 65 65 70 73 72 71 71 70 68 67 68 68 67 66
70 71 72 73 73 74 74 74 74 73 73 73 73 73 73 71 68 67 68 71 71 66 64 66 67 66 63 62 63 63 64 70 72 71 70 70 69 68 67 67 68 67
69 70 71 71 72 72 73 73 73 73 75 75 75 74 72 72 70 68 69 70 71 72 71 70 69 67 61 60 60 61 62 66 71 71 71 70 69 68 67 67 67 67
68 68 69 70 71 71 72 72 73 72 73 74 75 74 72 71 73 72 72 73 72 71 71 71 70 64 61 59 57 57 59 63 69 70 69 70 69 68 67 67 67 67
69 68 68 70 70 71 71 71 72 72 72 74 74 74 75 74 74 73 73 72 72 72 72 70 70 64 63 61 58 57 58 63 66 69 69 68 68 68 67 66 66 67
68 69 68 68 70 70 70 71 72 71 72 73 73 74 74 73 73 74 74 74 73 73 72 71 71 67 62 61 59 57 59 63 64 67 69 69 67 67 66 65 66 66
67 68 68 68 69 69 70 70 71 72 72 71 71 72 72 73 74 74 74 74 74 73 72 72 71 70 65 62 58 57 62 64 64 65 67 69 69 68 66 65 65 72
64 65 64 68 69 70 70 70 70 69 68 67 68 68 70 72 72 71 72 73 74 73 75 73 72 70 65 63 61 55 60 64 66 66 66 67 68 69 68 68 66 69
61 63 64 65 69 69 70 70 70 69 69 68 67 65 67 70 72 72 71 71 71 72 73 74 73 72 71 63 59 56 56 66 66 66 67 67 68 69 69 69 69 68